Gustavus, AK

4:57 PM AKDT on September 24, 2017 (GMT -0800)
Gustavus | | Change Station

Elev 33 ft 58.42 °N, 135.71 °W | Updated 5 minutes ago

Overcast
Overcast
54 °F
Feels Like 54 °F
N
0
Wind Variable Wind from North

Today
High -- | Low -- °F
--% Chance of Precip.
Yesterday
High -- | Low -- °F
Precip. -- in
Pressure 29.80 in
Visibility 10.0 miles
Clouds Mostly Cloudy 600 ft
Overcast 2400 ft
Dew Point 52 °F
Humidity 94%
Rainfall 0.24 in
Snow Depth Not available.
6:53 AM 6:55 PM
Waxing Crescent, 22% visible
SPECI PAGS 250052Z AUTO 00000KT 10SM BKN006 OVC024 12/11 A2980 RMK AO2 RAE34 CIG 003V010 P0003
Pressure 29.80 in
Visibility 10.0 miles
Clouds Mostly Cloudy 600 ft
Overcast 2400 ft
Dew Point 52 °F
Humidity 94%
Rainfall 0.24 in
Snow Depth Not available.
6:53 AM 6:55 PM
Waxing Crescent, 22% visible
SPECI PAGS 250052Z AUTO 00000KT 10SM BKN006 OVC024 12/11 A2980 RMK AO2 RAE34 CIG 003V010 P0003

Get Severe Weather Alerts

Thanks for signing up!

Be on the lookout for a verification email in your inbox.

You'll start receiving the daily forecast at 6 AM.

×

10-Day Weather Forecast

Almanac

Astronomy

Sep. 24, 2017 Rise Set
Actual Time
Civil Twilight
Nautical Twilight
Astronomical Twilight
Moon
Length of Visible Light
Length of Day
Tomorrow will be .
, % of the Moon is Illuminated

Today's Extremes

State Highs State Lows

Community

WunderPhotos

Category 6

Welcome to Category 6. This is the collective home for Weather Underground's featured writeups by Dr. Jeff Masters (right), Bob Henson (left), Chris Burt, and other regular contributors.

Nearby

Air Quality

  Air Quality AQ Index Pollutant
Not available.

Snow Depth

Station Depth Elevation

Earthquake Activity

City Distance Mag. Time & Date
Minimum magnitude displayed is 2.5.

Coastal Water Temperatures

Place Temperature

Stations

Nearby Weather Stations

Station Location Temp. Windchill Dew Point Humidity Wind Precip. Elev Updated Type
                   

Watches & Warnings

There are currently no watches in effect.